This is the latest recevied weather packets stored in our database for station/object DH5RAE-11. If no packets are shown the sender has not sent any weather packets the latest 10 day(s).
| Time | Temp. | Humidity | Pressure | Rain* | Wind** | Luminosity | Snow |
|---|---|---|---|---|---|---|---|
| 1787871595 | 17.78° C | 82% | 1017.8 hPa | 0 mm | - | - | - |
| 1787870995 | 18.33° C | 82% | 1017.8 hPa | 0 mm | - | - | - |
| 1787870395 | 18.33° C | 82% | 1018.1 hPa | 0 mm | - | - | - |
| 1787869794 | 18.33° C | 82% | 1018.4 hPa | 0 mm | - | - | - |
| 1787869194 | 18.33° C | 81% | 1018.6 hPa | 0 mm | - | - | - |
| 1787868594 | 18.89° C | 81% | 1018.7 hPa | 0 mm | - | - | - |
| 1787867993 | 18.89° C | 82% | 1018.8 hPa | 0 mm | - | - | - |
| 1787867393 | 17.78° C | 83% | 1018.8 hPa | 0 mm | - | - | - |
| 1787866792 | 17.78° C | 84% | 1018.9 hPa | 0 mm | - | - | - |
| 1787866192 | 17.78° C | 83% | 1018.9 hPa | 0 mm | - | - | - |
| 1787865592 | 17.78° C | 83% | 1018.9 hPa | 0 mm | - | - | - |
| 1787864992 | 17.78° C | 83% | 1018.9 hPa | 0 mm | - | - | - |
| 1787864391 | 17.78° C | 82% | 1018.9 hPa | 0 mm | - | - | - |
| 1787863791 | 18.33° C | 81% | 1019 hPa | 0 mm | - | - | - |
| 1787863191 | 18.33° C | 81% | 1019.2 hPa | 0 mm | - | - | - |
| 1787862452 | 18.33° C | 81% | 1019.2 hPa | 0 mm | - | - | - |
| 1787861782 | 18.89° C | 80% | 1019.1 hPa | 0 mm | - | - | - |
| 1787861043 | 18.89° C | 80% | 1019.1 hPa | 0 mm | - | - | - |
| 1787860442 | 19.44° C | 78% | 1019.1 hPa | 0 mm | - | - | - |
| 1787859496 | 19.44° C | 77% | 1018.9 hPa | 0 mm | - | - | - |
| 1787858826 | 20° C | 77% | 1019 hPa | 0 mm | - | - | - |
| 1787858224 | 20° C | 76% | 1018.9 hPa | 0 mm | - | - | - |
| 1787857622 | 20.56° C | 74% | 1019 hPa | 0 mm | - | - | - |
| 1787856816 | 21.67° C | 72% | 1019.2 hPa | 0 mm | - | - | - |
| 1787856076 | 22.22° C | 70% | 1019.3 hPa | 0 mm | - | - | - |
* Rain latest hour (hover to see other rain measurements)
** Current wind speed in m/s (hover to see current wind gust speed)